Location: Saluda
(35.2377°N, 82.3468°W)
Time: 09:57:56
(UTC+00:00)

Courier 1B Rocket - Pass Details

Date: 06 October 2022
Orbit: 920 x 1202 km, 28.2° (Epoch: 05 December)

Event Time Altitude Azimuth Distance (km) Brightness Sun altitude
Rises 23:27:26 0° 247° (WSW) 3,896 9.7 -5.2°
Reaches altitude 10° 23:30:24 10° 241° (WSW) 2,895 8.7 -5.8°
Maximum altitude 23:36:59 43° 172° (S) 1,391 5.8 -7.1°
Drops below altitude 10° 23:43:08 10° 103° (ESE) 2,709 6.7 -8.4°
Enters shadow 23:43:21 - 102° (ESE) 2,778 6.7 -8.4°
Sets 23:45:50 0° 96° (E) 3,623 - -8.9°
